Year,Month,Day,Hour,Minute,Value (Times are PST for temperature in C)
2013,06,23,00,00,11.40
2013,06,23,00,01,11.30
2013,06,23,00,02,11.30
2013,06,23,00,03,11.30
2013,06,23,00,04,11.30
2013,06,23,00,05,11.20
2013,06,23,00,06,11.20
2013,06,23,00,07,11.20
2013,06,23,00,08,11.20
2013,06,23,00,09,11.20
2013,06,23,00,10,11.20
2013,06,23,00,11,11.20
2013,06,23,00,12,11.20
2013,06,23,00,13,11.20
2013,06,23,00,14,11.20
2013,06,23,00,15,11.20
2013,06,23,00,16,11.20
2013,06,23,00,17,11.20
2013,06,23,00,18,11.20
2013,06,23,00,19,11.20
2013,06,23,00,20,11.20
2013,06,23,00,21,11.20
2013,06,23,00,22,11.20
2013,06,23,00,23,11.20
2013,06,23,00,24,11.20
2013,06,23,00,25,11.20
2013,06,23,00,26,11.20
2013,06,23,00,27,11.20
2013,06,23,00,28,11.20
2013,06,23,00,29,11.20
2013,06,23,00,30,11.10
2013,06,23,00,31,11.10
2013,06,23,00,32,11.10
2013,06,23,00,33,11.00
2013,06,23,00,34,10.90
2013,06,23,00,35,10.90
2013,06,23,00,36,10.90
2013,06,23,00,37,10.90
2013,06,23,00,38,10.90
2013,06,23,00,39,10.80
2013,06,23,00,40,10.80
2013,06,23,00,41,10.80
2013,06,23,00,42,10.80
2013,06,23,00,43,10.80
2013,06,23,00,44,10.80
2013,06,23,00,45,10.80
2013,06,23,00,46,10.80
2013,06,23,00,47,10.80
2013,06,23,00,48,10.80
2013,06,23,00,49,10.80
2013,06,23,00,50,10.80
2013,06,23,00,51,10.80
2013,06,23,00,52,10.70
2013,06,23,00,53,10.70
2013,06,23,00,54,10.70
2013,06,23,00,55,10.70
2013,06,23,00,56,10.70
2013,06,23,00,57,10.70
2013,06,23,00,58,10.70
2013,06,23,00,59,10.70
2013,06,23,01,00,10.70
2013,06,23,01,01,10.70
2013,06,23,01,02,10.60
2013,06,23,01,03,10.60
2013,06,23,01,04,10.60
2013,06,23,01,05,10.60
2013,06,23,01,06,10.50
2013,06,23,01,07,10.50
2013,06,23,01,08,10.50
2013,06,23,01,09,10.40
2013,06,23,01,10,10.40
2013,06,23,01,11,10.40
2013,06,23,01,12,10.40
2013,06,23,01,13,10.40
2013,06,23,01,14,10.30
2013,06,23,01,15,10.30
2013,06,23,01,16,10.30
2013,06,23,01,17,10.40
2013,06,23,01,18,10.40
2013,06,23,01,19,10.40
2013,06,23,01,20,10.40
2013,06,23,01,21,10.40
2013,06,23,01,22,10.40
2013,06,23,01,23,10.40
2013,06,23,01,24,10.30
2013,06,23,01,25,10.30
2013,06,23,01,26,10.30
2013,06,23,01,27,10.30
2013,06,23,01,28,10.30
2013,06,23,01,29,10.30
2013,06,23,01,30,10.30
2013,06,23,01,31,10.30
2013,06,23,01,32,10.30
2013,06,23,01,33,10.20
2013,06,23,01,34,10.20
2013,06,23,01,35,10.20
2013,06,23,01,36,10.20
2013,06,23,01,37,10.20
2013,06,23,01,38,10.20
2013,06,23,01,39,10.20
2013,06,23,01,40,10.20
2013,06,23,01,41,10.20
2013,06,23,01,42,10.20
2013,06,23,01,43,10.20
2013,06,23,01,44,10.20
2013,06,23,01,45,10.20
2013,06,23,01,46,10.20
2013,06,23,01,47,10.20
2013,06,23,01,48,10.20
2013,06,23,01,49,10.20
2013,06,23,01,50,10.10
2013,06,23,01,51,10.10
2013,06,23,01,52,10.10
2013,06,23,01,53,10.10
2013,06,23,01,54,10.10
2013,06,23,01,55,10.10
2013,06,23,01,56,10.00
2013,06,23,01,57,10.00
2013,06,23,01,58,10.00
2013,06,23,01,59,9.90
2013,06,23,02,00,10.00
2013,06,23,02,01,10.00
2013,06,23,02,02,10.00
2013,06,23,02,03,10.00
2013,06,23,02,04,10.00
2013,06,23,02,05,10.00
2013,06,23,02,06,10.00
2013,06,23,02,07,9.90
2013,06,23,02,08,9.90
2013,06,23,02,09,9.90
2013,06,23,02,10,9.90
2013,06,23,02,11,9.90
2013,06,23,02,12,9.90
2013,06,23,02,13,9.90
2013,06,23,02,14,9.90
2013,06,23,02,15,9.90
2013,06,23,02,16,9.90
2013,06,23,02,17,9.90
2013,06,23,02,18,9.90
2013,06,23,02,19,9.90
2013,06,23,02,20,9.90
2013,06,23,02,21,9.90
2013,06,23,02,22,9.90
2013,06,23,02,23,9.90
2013,06,23,02,24,9.90
2013,06,23,02,25,9.90
2013,06,23,02,26,9.90
2013,06,23,02,27,9.90
2013,06,23,02,28,9.90
2013,06,23,02,29,9.90
2013,06,23,02,30,9.90
2013,06,23,02,31,9.90
2013,06,23,02,32,9.90
2013,06,23,02,33,9.80
2013,06,23,02,34,9.80
2013,06,23,02,35,9.80
2013,06,23,02,36,9.70
2013,06,23,02,37,9.70
2013,06,23,02,38,9.70
2013,06,23,02,39,9.70
2013,06,23,02,40,9.60
2013,06,23,02,41,9.60
2013,06,23,02,42,9.60
2013,06,23,02,43,9.60
2013,06,23,02,44,9.60
2013,06,23,02,45,9.60
2013,06,23,02,46,9.60
2013,06,23,02,47,9.60
2013,06,23,02,48,9.60
2013,06,23,02,49,9.60
2013,06,23,02,50,9.60
2013,06,23,02,51,9.60
2013,06,23,02,52,9.60
2013,06,23,02,53,9.60
2013,06,23,02,54,9.60
2013,06,23,02,55,9.60
2013,06,23,02,56,9.70
2013,06,23,02,57,9.70
2013,06,23,02,58,9.70
2013,06,23,02,59,9.70
2013,06,23,03,00,9.70
2013,06,23,03,01,9.70
2013,06,23,03,02,9.60
2013,06,23,03,06,9.60
2013,06,23,03,07,9.60
2013,06,23,03,08,9.60
2013,06,23,03,09,9.60
2013,06,23,03,10,9.60
2013,06,23,03,11,9.60
2013,06,23,03,12,9.60
2013,06,23,03,13,9.50
2013,06,23,03,14,9.50
2013,06,23,03,15,9.50
2013,06,23,03,16,9.60
2013,06,23,03,17,9.60
2013,06,23,03,18,9.60
2013,06,23,03,19,9.60
2013,06,23,03,20,9.60
2013,06,23,03,21,9.60
2013,06,23,03,22,9.60
2013,06,23,03,23,9.60
2013,06,23,03,24,9.60
2013,06,23,03,25,9.60
2013,06,23,03,26,9.50
2013,06,23,03,27,9.50
2013,06,23,03,28,9.50
2013,06,23,03,29,9.50
2013,06,23,03,30,9.40
2013,06,23,03,31,9.40
2013,06,23,03,32,9.40
2013,06,23,03,33,9.40
2013,06,23,03,34,9.40
2013,06,23,03,35,9.30
2013,06,23,03,36,9.30
2013,06,23,03,37,9.30
2013,06,23,03,38,9.30
2013,06,23,03,39,9.30
2013,06,23,03,40,9.30
2013,06,23,03,41,9.30
2013,06,23,03,42,9.30
2013,06,23,03,43,9.30
2013,06,23,03,44,9.20
2013,06,23,03,45,9.20
2013,06,23,03,46,9.20
2013,06,23,03,47,9.20
2013,06,23,03,48,9.20
2013,06,23,03,49,9.20
2013,06,23,03,50,9.20
2013,06,23,03,51,9.20
2013,06,23,03,52,9.20
2013,06,23,03,53,9.20
2013,06,23,03,54,9.20
2013,06,23,03,55,9.20
2013,06,23,03,56,9.30
2013,06,23,03,57,9.30
2013,06,23,03,58,9.30
2013,06,23,03,59,9.30
2013,06,23,04,00,9.30
2013,06,23,04,01,9.20
2013,06,23,04,02,9.20
2013,06,23,04,03,9.20
2013,06,23,04,04,9.20
2013,06,23,04,05,9.20
2013,06,23,04,06,9.20
2013,06,23,04,07,9.20
2013,06,23,04,08,9.20
2013,06,23,04,09,9.10
2013,06,23,04,10,9.10
2013,06,23,04,11,9.10
2013,06,23,04,12,9.10
2013,06,23,04,13,9.10
2013,06,23,04,14,9.10
2013,06,23,04,15,9.10
2013,06,23,04,16,9.10
2013,06,23,04,17,9.10
2013,06,23,04,18,9.10
2013,06,23,04,19,9.10
2013,06,23,04,20,9.10
2013,06,23,04,21,9.10
2013,06,23,04,22,9.10
2013,06,23,04,23,9.20
2013,06,23,04,24,9.10
2013,06,23,04,25,9.20
2013,06,23,04,26,9.10
2013,06,23,04,27,9.10
2013,06,23,04,28,9.10
2013,06,23,04,29,9.10
2013,06,23,04,30,9.10
2013,06,23,04,31,9.10
2013,06,23,04,32,9.10
2013,06,23,04,33,9.10
2013,06,23,04,34,9.10
2013,06,23,04,35,9.10
2013,06,23,04,36,9.10
2013,06,23,04,37,9.20
2013,06,23,04,38,9.20
2013,06,23,04,39,9.10
2013,06,23,04,40,9.10
2013,06,23,04,41,9.10
2013,06,23,04,42,9.10
2013,06,23,04,43,9.10
2013,06,23,04,44,9.10
2013,06,23,04,45,9.10
2013,06,23,04,46,9.00
2013,06,23,04,47,9.00
2013,06,23,04,48,9.00
2013,06,23,04,49,9.00
2013,06,23,04,50,9.00
2013,06,23,04,51,9.00
2013,06,23,04,52,9.10
2013,06,23,04,53,9.10
2013,06,23,04,54,9.10
2013,06,23,04,55,9.10
2013,06,23,04,56,9.00
2013,06,23,04,57,9.00
2013,06,23,04,58,8.90
2013,06,23,04,59,8.90
2013,06,23,05,00,8.90
2013,06,23,05,01,8.90
2013,06,23,05,02,8.90
2013,06,23,05,03,8.90
2013,06,23,05,04,8.90
2013,06,23,05,05,8.90
2013,06,23,05,06,8.90
2013,06,23,05,07,8.90
2013,06,23,05,08,8.90
2013,06,23,05,09,8.90
2013,06,23,05,10,8.90
2013,06,23,05,11,8.90
2013,06,23,05,12,8.90
2013,06,23,05,13,8.90
2013,06,23,05,14,8.90
2013,06,23,05,15,8.90
2013,06,23,05,16,8.90
2013,06,23,05,17,8.90
2013,06,23,05,18,8.90
2013,06,23,05,19,8.90
2013,06,23,05,20,8.90
2013,06,23,05,21,8.90
2013,06,23,05,22,8.90
2013,06,23,05,23,9.00
2013,06,23,05,24,9.00
2013,06,23,05,25,9.00
2013,06,23,05,26,9.00
2013,06,23,05,27,9.00
2013,06,23,05,28,9.00
2013,06,23,05,29,9.00
2013,06,23,05,30,9.00
2013,06,23,05,31,9.00
2013,06,23,05,32,9.00
2013,06,23,05,33,9.00
2013,06,23,05,34,9.00
2013,06,23,05,35,9.00
2013,06,23,05,36,9.00
2013,06,23,05,37,9.00
2013,06,23,05,38,9.00
2013,06,23,05,39,9.00
2013,06,23,05,40,9.00
2013,06,23,05,41,9.00
2013,06,23,05,42,9.00
2013,06,23,05,43,9.00
2013,06,23,05,44,9.00
2013,06,23,05,45,9.00
2013,06,23,05,46,9.10
2013,06,23,05,47,9.10
2013,06,23,05,48,9.10
2013,06,23,05,49,9.10
2013,06,23,05,50,9.10
2013,06,23,05,51,9.10
2013,06,23,05,52,9.10
2013,06,23,05,53,9.10
2013,06,23,05,54,9.20
2013,06,23,05,55,9.20
2013,06,23,05,56,9.20
2013,06,23,05,57,9.20
2013,06,23,05,58,9.20
2013,06,23,05,59,9.20
2013,06,23,06,00,9.30
2013,06,23,06,01,9.30
2013,06,23,06,02,9.30
2013,06,23,06,03,9.30
2013,06,23,06,04,9.30
2013,06,23,06,05,9.40
2013,06,23,06,06,9.40
2013,06,23,06,07,9.50
2013,06,23,06,08,9.50
2013,06,23,06,09,9.50
2013,06,23,06,10,9.60
2013,06,23,06,11,9.60
2013,06,23,06,12,9.60
2013,06,23,06,13,9.60
2013,06,23,06,14,9.60
2013,06,23,06,15,9.60
2013,06,23,06,16,9.70
2013,06,23,06,17,9.70
2013,06,23,06,18,9.70
2013,06,23,06,19,9.70
2013,06,23,06,20,9.70
2013,06,23,06,21,9.80
2013,06,23,06,22,9.80
2013,06,23,06,23,9.80
2013,06,23,06,24,9.80
2013,06,23,06,25,9.90
2013,06,23,06,26,9.90
2013,06,23,06,27,9.90
2013,06,23,06,28,10.00
2013,06,23,06,29,10.00
2013,06,23,06,30,10.00
2013,06,23,06,31,10.10
2013,06,23,06,32,10.10
2013,06,23,06,33,10.20
2013,06,23,06,34,10.30
2013,06,23,06,35,10.40
2013,06,23,06,36,10.40
2013,06,23,06,37,10.50
2013,06,23,06,38,10.60
2013,06,23,06,39,10.70
2013,06,23,06,40,10.70
2013,06,23,06,41,10.80
2013,06,23,06,42,10.80
2013,06,23,06,43,10.90
2013,06,23,06,44,10.90
2013,06,23,06,45,11.00
2013,06,23,06,46,11.00
2013,06,23,06,47,11.10
2013,06,23,06,48,11.10
2013,06,23,06,49,11.20
2013,06,23,06,50,11.20
2013,06,23,06,51,11.30
2013,06,23,06,52,11.30
2013,06,23,06,53,11.40
2013,06,23,06,54,11.50
2013,06,23,06,55,11.50
2013,06,23,06,56,11.60
2013,06,23,06,57,11.70
2013,06,23,06,58,11.80
2013,06,23,06,59,11.80
2013,06,23,07,00,11.90
2013,06,23,07,01,11.90
2013,06,23,07,02,12.00
2013,06,23,07,03,12.10
2013,06,23,07,04,12.10
2013,06,23,07,05,12.20
2013,06,23,07,06,12.20
2013,06,23,07,07,12.30
2013,06,23,07,08,12.40
2013,06,23,07,09,12.40
2013,06,23,07,10,12.50
2013,06,23,07,11,12.60
2013,06,23,07,12,12.70
2013,06,23,07,13,12.70
2013,06,23,07,14,12.80
2013,06,23,07,15,12.80
2013,06,23,07,16,12.90
2013,06,23,07,17,12.90
2013,06,23,07,18,12.90
2013,06,23,07,19,13.00
2013,06,23,07,20,13.00
2013,06,23,07,21,13.10
2013,06,23,07,22,13.10
2013,06,23,07,23,13.10
2013,06,23,07,24,13.10
2013,06,23,07,25,13.20
2013,06,23,07,26,13.20
2013,06,23,07,27,13.20
2013,06,23,07,28,13.20
2013,06,23,07,29,13.30
2013,06,23,07,30,13.30
2013,06,23,07,31,13.30
2013,06,23,07,32,13.40
2013,06,23,07,33,13.40
2013,06,23,07,34,13.50
2013,06,23,07,35,13.50
2013,06,23,07,36,13.60
2013,06,23,07,37,13.60
2013,06,23,07,38,13.60
2013,06,23,07,39,13.60
2013,06,23,07,40,13.70
2013,06,23,07,41,13.70
2013,06,23,07,42,13.70
2013,06,23,07,43,13.80
2013,06,23,07,44,13.80
2013,06,23,07,45,13.80
2013,06,23,07,46,13.80
2013,06,23,07,47,13.90
2013,06,23,07,48,13.90
2013,06,23,07,49,13.90
2013,06,23,07,50,13.90
2013,06,23,07,51,14.00
2013,06,23,07,52,14.10
2013,06,23,07,53,14.10
2013,06,23,07,54,14.20
2013,06,23,07,55,14.20
2013,06,23,07,56,14.20
2013,06,23,07,57,14.30
2013,06,23,07,58,14.30
2013,06,23,07,59,14.30
2013,06,23,08,00,14.30
2013,06,23,08,01,14.40
2013,06,23,08,02,14.40
2013,06,23,08,03,14.40
2013,06,23,08,04,14.50
2013,06,23,08,05,14.50
2013,06,23,08,06,14.60
2013,06,23,08,07,14.60
2013,06,23,08,08,14.70
2013,06,23,08,09,14.70
2013,06,23,08,10,14.70
2013,06,23,08,11,14.80
2013,06,23,08,12,14.80
2013,06,23,08,13,14.80
2013,06,23,08,14,14.80
2013,06,23,08,15,14.80
2013,06,23,08,16,14.90
2013,06,23,08,17,14.90
2013,06,23,08,18,14.90
2013,06,23,08,19,14.90
2013,06,23,08,20,15.00
2013,06,23,08,21,15.00
2013,06,23,08,22,15.00
2013,06,23,08,23,15.00
2013,06,23,08,24,15.00
2013,06,23,08,25,15.00
2013,06,23,08,26,15.00
2013,06,23,08,27,15.00
2013,06,23,08,28,15.00
2013,06,23,08,29,15.00
2013,06,23,08,30,15.00
2013,06,23,08,31,15.00
2013,06,23,08,32,15.10
2013,06,23,08,33,15.20
2013,06,23,08,34,15.20
2013,06,23,08,35,15.20
2013,06,23,08,36,15.30
2013,06,23,08,37,15.20
2013,06,23,08,38,15.30
2013,06,23,08,39,15.30
2013,06,23,08,40,15.30
2013,06,23,08,41,15.40
2013,06,23,08,42,15.40
2013,06,23,08,43,15.40
2013,06,23,08,44,15.40
2013,06,23,08,45,15.40
2013,06,23,08,46,15.40
2013,06,23,08,47,15.50
2013,06,23,08,48,15.60
2013,06,23,08,49,15.60
2013,06,23,08,50,15.70
2013,06,23,08,51,15.70
2013,06,23,08,52,15.70
2013,06,23,08,53,15.80
2013,06,23,08,54,15.80
2013,06,23,08,55,15.80
2013,06,23,08,56,15.90
2013,06,23,08,57,15.90
2013,06,23,08,58,16.00
2013,06,23,08,59,16.00
2013,06,23,09,00,16.00
2013,06,23,09,01,16.00
2013,06,23,09,02,16.10
2013,06,23,09,03,16.10
2013,06,23,09,04,16.20
2013,06,23,09,05,16.20
2013,06,23,09,06,16.20
2013,06,23,09,07,16.30
2013,06,23,09,08,16.30
2013,06,23,09,09,16.30
2013,06,23,09,10,16.40
2013,06,23,09,11,16.40
2013,06,23,09,12,16.50
2013,06,23,09,13,16.50
2013,06,23,09,14,16.50
2013,06,23,09,15,16.50
2013,06,23,09,16,16.50
2013,06,23,09,17,16.50
2013,06,23,09,18,16.60
2013,06,23,09,19,16.60
2013,06,23,09,20,16.60
2013,06,23,09,21,16.60
2013,06,23,09,22,16.60
2013,06,23,09,23,16.60
2013,06,23,09,24,16.70
2013,06,23,09,25,16.70
2013,06,23,09,26,16.80
2013,06,23,09,27,16.80
2013,06,23,09,28,16.80
2013,06,23,09,29,16.80
2013,06,23,09,30,16.80
2013,06,23,09,31,16.80
2013,06,23,09,32,16.90
2013,06,23,09,33,16.90
2013,06,23,09,34,16.90
2013,06,23,09,35,16.90
2013,06,23,09,36,17.00
2013,06,23,09,37,17.00
2013,06,23,09,38,17.00
2013,06,23,09,39,17.00
2013,06,23,09,40,17.00
2013,06,23,09,41,17.00
2013,06,23,09,42,17.00
2013,06,23,09,43,17.00
2013,06,23,09,44,17.00
2013,06,23,09,45,17.00
2013,06,23,09,46,17.00
2013,06,23,09,47,17.00
2013,06,23,09,48,17.00
2013,06,23,09,49,17.00
2013,06,23,09,50,17.00
2013,06,23,09,51,17.00
2013,06,23,09,52,17.00
2013,06,23,09,53,17.00
2013,06,23,09,54,17.00
2013,06,23,09,55,17.00
2013,06,23,09,56,17.00
2013,06,23,09,57,17.00
2013,06,23,09,58,17.00
2013,06,23,09,59,17.00
2013,06,23,10,00,17.00
2013,06,23,10,01,17.10
2013,06,23,10,02,17.10
2013,06,23,10,03,17.10
2013,06,23,10,04,17.10
2013,06,23,10,05,17.10
2013,06,23,10,06,17.10
2013,06,23,10,07,17.10
2013,06,23,10,08,17.20
2013,06,23,10,09,17.20
2013,06,23,10,10,17.20
2013,06,23,10,11,17.10
2013,06,23,10,12,17.10
2013,06,23,10,13,17.10
2013,06,23,10,14,17.10
2013,06,23,10,15,17.10
2013,06,23,10,16,17.10
2013,06,23,10,17,17.10
2013,06,23,10,18,17.10
2013,06,23,10,19,17.00
2013,06,23,10,20,17.00
2013,06,23,10,21,17.10
2013,06,23,10,22,17.10
2013,06,23,10,23,17.10
2013,06,23,10,24,17.20
2013,06,23,10,25,17.20
2013,06,23,10,26,17.20
2013,06,23,10,27,17.30
2013,06,23,10,28,17.30
2013,06,23,10,29,17.40
2013,06,23,10,30,17.40
2013,06,23,10,31,17.40
2013,06,23,10,32,17.50
2013,06,23,10,33,17.50
2013,06,23,10,34,17.50
2013,06,23,10,35,17.50
2013,06,23,10,36,17.50
2013,06,23,10,37,17.40
2013,06,23,10,38,17.40
2013,06,23,10,39,17.40
2013,06,23,10,40,17.50
2013,06,23,10,41,17.50
2013,06,23,10,42,17.50
2013,06,23,10,43,17.50
2013,06,23,10,44,17.50
2013,06,23,10,45,17.50
2013,06,23,10,46,17.50
2013,06,23,10,47,17.50
2013,06,23,10,48,17.50
2013,06,23,10,49,17.40
2013,06,23,10,50,17.40
2013,06,23,10,51,17.40
2013,06,23,10,52,17.40
2013,06,23,10,53,17.30
2013,06,23,10,54,17.30
2013,06,23,10,55,17.30
2013,06,23,10,56,17.30
2013,06,23,10,57,17.30
2013,06,23,10,58,17.40
2013,06,23,10,59,17.40
2013,06,23,11,00,17.40
2013,06,23,11,01,17.40
2013,06,23,11,02,17.40
2013,06,23,11,03,17.40
2013,06,23,11,04,17.40
2013,06,23,11,05,17.40
2013,06,23,11,06,17.40
2013,06,23,11,07,17.40
2013,06,23,11,08,17.40
2013,06,23,11,09,17.40
2013,06,23,11,10,17.50
2013,06,23,11,11,17.50
2013,06,23,11,12,17.40
2013,06,23,11,13,17.50
2013,06,23,11,14,17.50
2013,06,23,11,15,17.60
2013,06,23,11,16,17.60
2013,06,23,11,17,17.60
2013,06,23,11,18,17.60
2013,06,23,11,19,17.50
2013,06,23,11,20,17.50
2013,06,23,11,21,17.50
2013,06,23,11,22,17.40
2013,06,23,11,23,17.40
2013,06,23,11,24,17.40
2013,06,23,11,25,17.40
2013,06,23,11,26,17.50
2013,06,23,11,27,17.50
2013,06,23,11,28,17.40
2013,06,23,11,29,17.40
2013,06,23,11,30,17.40
2013,06,23,11,31,17.50
2013,06,23,11,32,17.50
2013,06,23,11,33,17.50
2013,06,23,11,34,17.40
2013,06,23,11,35,17.40
2013,06,23,11,36,17.40
2013,06,23,11,37,17.40
2013,06,23,11,38,17.40
2013,06,23,11,39,17.30
2013,06,23,11,40,17.30
2013,06,23,11,41,17.30
2013,06,23,11,42,17.30
2013,06,23,11,43,17.30
2013,06,23,11,44,17.20
2013,06,23,11,45,17.20
2013,06,23,11,46,17.20
2013,06,23,11,47,17.20
2013,06,23,11,48,17.10
2013,06,23,11,49,17.10
2013,06,23,11,50,17.10
2013,06,23,11,51,17.10
2013,06,23,11,52,17.10
2013,06,23,11,53,17.00
2013,06,23,11,54,17.00
2013,06,23,11,55,17.10
2013,06,23,11,56,17.10
2013,06,23,11,57,17.10
2013,06,23,11,58,17.10
2013,06,23,11,59,17.20
2013,06,23,12,00,17.20
2013,06,23,12,01,17.20
2013,06,23,12,02,17.20
2013,06,23,12,03,17.20
2013,06,23,12,04,17.20
2013,06,23,12,05,17.20
2013,06,23,12,06,17.20
2013,06,23,12,07,17.10
2013,06,23,12,08,17.10
2013,06,23,12,09,17.10
2013,06,23,12,10,17.10
2013,06,23,12,11,17.10
2013,06,23,12,12,17.10
2013,06,23,12,13,17.10
2013,06,23,12,14,17.10
2013,06,23,12,15,17.10
2013,06,23,12,16,17.00
2013,06,23,12,17,17.00
2013,06,23,12,18,17.00
2013,06,23,12,19,17.00
2013,06,23,12,20,17.00
2013,06,23,12,21,17.00
2013,06,23,12,22,17.00
2013,06,23,12,23,17.00
2013,06,23,12,24,17.00
2013,06,23,12,25,17.00
2013,06,23,12,26,17.00
2013,06,23,12,27,16.90
2013,06,23,12,28,16.90
2013,06,23,12,29,16.90
2013,06,23,12,30,16.90
2013,06,23,12,31,16.90
2013,06,23,12,32,16.90
2013,06,23,12,33,16.90
2013,06,23,12,34,16.80
2013,06,23,12,35,16.80
2013,06,23,12,36,16.80
2013,06,23,12,37,16.80
2013,06,23,12,38,16.80
2013,06,23,12,39,16.80
2013,06,23,12,40,16.80
2013,06,23,12,41,16.80
2013,06,23,12,42,16.80
2013,06,23,12,43,16.70
2013,06,23,12,44,16.70
2013,06,23,12,45,16.60
2013,06,23,12,46,16.70
2013,06,23,12,47,16.70
2013,06,23,12,48,16.70
2013,06,23,12,49,16.70
2013,06,23,12,50,16.70
2013,06,23,12,51,16.70
2013,06,23,12,52,16.70
2013,06,23,12,53,16.70
2013,06,23,12,54,16.70
2013,06,23,12,55,16.70
2013,06,23,12,56,16.80
2013,06,23,12,57,16.80
2013,06,23,12,58,16.80
2013,06,23,12,59,16.80
2013,06,23,13,00,16.80
2013,06,23,13,01,16.80
2013,06,23,13,02,16.80
2013,06,23,13,03,16.80
2013,06,23,13,04,16.80
2013,06,23,13,05,16.80
2013,06,23,13,06,16.80
2013,06,23,13,07,16.80
2013,06,23,13,08,16.80
2013,06,23,13,09,16.80
2013,06,23,13,10,16.80
2013,06,23,13,11,16.70
2013,06,23,13,12,16.70
2013,06,23,13,13,16.70
2013,06,23,13,14,16.70
2013,06,23,13,15,16.70
2013,06,23,13,16,16.70
2013,06,23,13,17,16.70
2013,06,23,13,18,16.70
2013,06,23,13,19,16.80
2013,06,23,13,20,16.70
2013,06,23,13,21,16.70
2013,06,23,13,22,16.70
2013,06,23,13,23,16.70
2013,06,23,13,24,16.70
2013,06,23,13,25,16.70
2013,06,23,13,26,16.70
2013,06,23,13,27,16.70
2013,06,23,13,28,16.70
2013,06,23,13,29,16.70
2013,06,23,13,30,16.80
2013,06,23,13,31,16.80
2013,06,23,13,32,16.80
2013,06,23,13,33,16.70
2013,06,23,13,34,16.70
2013,06,23,13,35,16.60
2013,06,23,13,36,16.60
2013,06,23,13,37,16.60
2013,06,23,13,38,16.50
2013,06,23,13,39,16.50
2013,06,23,13,40,16.40
2013,06,23,13,41,16.40
2013,06,23,13,42,16.40
2013,06,23,13,43,16.40
2013,06,23,13,44,16.40
2013,06,23,13,45,16.40
2013,06,23,13,46,16.40
2013,06,23,13,47,16.40
2013,06,23,13,48,16.40
2013,06,23,13,49,16.40
2013,06,23,13,50,16.30
2013,06,23,13,51,16.30
2013,06,23,13,52,16.30
2013,06,23,13,53,16.30
2013,06,23,13,54,16.30
2013,06,23,13,55,16.30
2013,06,23,13,56,16.30
2013,06,23,13,57,16.30
2013,06,23,13,58,16.30
2013,06,23,13,59,16.30
2013,06,23,14,00,16.30
2013,06,23,14,01,16.30
2013,06,23,14,02,16.30
2013,06,23,14,03,16.30
2013,06,23,14,04,16.40
2013,06,23,14,05,16.40
2013,06,23,14,06,16.50
2013,06,23,14,07,16.40
2013,06,23,14,08,16.40
2013,06,23,14,09,16.40
2013,06,23,14,10,16.40
2013,06,23,14,11,16.40
2013,06,23,14,12,16.40
2013,06,23,14,13,16.50
2013,06,23,14,14,16.50
2013,06,23,14,15,16.50
2013,06,23,14,16,16.50
2013,06,23,14,17,16.60
2013,06,23,14,18,16.60
2013,06,23,14,19,16.60
2013,06,23,14,20,16.60
2013,06,23,14,21,16.60
2013,06,23,14,22,16.50
2013,06,23,14,23,16.50
2013,06,23,14,24,16.50
2013,06,23,14,25,16.50
2013,06,23,14,26,16.50
2013,06,23,14,27,16.50
2013,06,23,14,28,16.50
2013,06,23,14,29,16.50
2013,06,23,14,30,16.50
2013,06,23,14,31,16.40
2013,06,23,14,32,16.40
2013,06,23,14,33,16.40
2013,06,23,14,34,16.40
2013,06,23,14,35,16.30
2013,06,23,14,36,16.30
2013,06,23,14,37,16.30
2013,06,23,14,38,16.40
2013,06,23,14,39,16.40
2013,06,23,14,40,16.40
2013,06,23,14,41,16.40
2013,06,23,14,42,16.50
2013,06,23,14,43,16.50
2013,06,23,14,44,16.50
2013,06,23,14,45,16.50
2013,06,23,14,46,16.40
2013,06,23,14,47,16.40
2013,06,23,14,48,16.40
2013,06,23,14,49,16.40
2013,06,23,14,50,16.50
2013,06,23,14,51,16.50
2013,06,23,14,52,16.60
2013,06,23,14,53,16.60
2013,06,23,14,54,16.60
2013,06,23,14,55,16.60
2013,06,23,14,56,16.60
2013,06,23,14,57,16.70
2013,06,23,14,58,16.70
2013,06,23,14,59,16.70
2013,06,23,15,00,16.70
2013,06,23,15,01,16.80
2013,06,23,15,02,16.80
2013,06,23,15,03,16.80
2013,06,23,15,04,16.90
2013,06,23,15,05,16.90
2013,06,23,15,06,16.90
2013,06,23,15,07,16.90
2013,06,23,15,08,16.90
2013,06,23,15,09,17.00
2013,06,23,15,10,17.00
2013,06,23,15,11,16.90
2013,06,23,15,12,16.90
2013,06,23,15,13,16.90
2013,06,23,15,14,16.90
2013,06,23,15,15,17.00
2013,06,23,15,16,17.10
2013,06,23,15,17,17.10
2013,06,23,15,18,17.10
2013,06,23,15,19,17.10
2013,06,23,15,20,17.20
2013,06,23,15,21,17.20
2013,06,23,15,22,17.20
2013,06,23,15,23,17.20
2013,06,23,15,24,17.20
2013,06,23,15,25,17.20
2013,06,23,15,26,17.20
2013,06,23,15,27,17.30
2013,06,23,15,28,17.30
2013,06,23,15,29,17.30
2013,06,23,15,30,17.40
2013,06,23,15,31,17.40
2013,06,23,15,32,17.40
2013,06,23,15,33,17.40
2013,06,23,15,34,17.40
2013,06,23,15,35,17.40
2013,06,23,15,36,17.50
2013,06,23,15,37,17.50
2013,06,23,15,38,17.50
2013,06,23,15,39,17.50
2013,06,23,15,40,17.50
2013,06,23,15,41,17.50
2013,06,23,15,42,17.50
2013,06,23,15,43,17.50
2013,06,23,15,44,17.50
2013,06,23,15,45,17.60
2013,06,23,15,46,17.50
2013,06,23,15,47,17.50
2013,06,23,15,48,17.50
2013,06,23,15,49,17.50
2013,06,23,15,50,17.40
2013,06,23,15,51,17.40
2013,06,23,15,52,17.40
2013,06,23,15,53,17.40
2013,06,23,15,54,17.40
2013,06,23,15,55,17.40
2013,06,23,15,56,17.40
2013,06,23,15,57,17.40
2013,06,23,15,58,17.40
2013,06,23,15,59,17.40
2013,06,23,16,00,17.40
2013,06,23,16,01,17.40
2013,06,23,16,02,17.40
2013,06,23,16,03,17.40
2013,06,23,16,04,17.40
2013,06,23,16,05,17.40
2013,06,23,16,06,17.40
2013,06,23,16,07,17.40
2013,06,23,16,08,17.50
2013,06,23,16,09,17.50
2013,06,23,16,10,17.50
2013,06,23,16,11,17.50
2013,06,23,16,12,17.50
2013,06,23,16,13,17.40
2013,06,23,16,14,17.40
2013,06,23,16,15,17.40
2013,06,23,16,16,17.40
2013,06,23,16,17,17.40
2013,06,23,16,18,17.40
2013,06,23,16,19,17.40
2013,06,23,16,20,17.40
2013,06,23,16,21,17.40
2013,06,23,16,22,17.40
2013,06,23,16,23,17.40
2013,06,23,16,24,17.40
2013,06,23,16,25,17.40
2013,06,23,16,26,17.40
2013,06,23,16,27,17.40
2013,06,23,16,28,17.50
2013,06,23,16,29,17.50
2013,06,23,16,30,17.50
2013,06,23,16,31,17.50
2013,06,23,16,32,17.50
2013,06,23,16,33,17.40
2013,06,23,16,34,17.40
2013,06,23,16,35,17.40
2013,06,23,16,36,17.40
2013,06,23,16,37,17.40
2013,06,23,16,38,17.30
2013,06,23,16,39,17.30
2013,06,23,16,40,17.30
2013,06,23,16,41,17.30
2013,06,23,16,42,17.30
2013,06,23,16,43,17.30
2013,06,23,16,44,17.20
2013,06,23,16,45,17.20
2013,06,23,16,46,17.20
2013,06,23,16,47,17.20
2013,06,23,16,48,17.20
2013,06,23,16,49,17.20
2013,06,23,16,50,17.20
2013,06,23,16,51,17.20
2013,06,23,16,52,17.30
2013,06,23,16,53,17.30
2013,06,23,16,54,17.30
2013,06,23,16,55,17.20
2013,06,23,16,56,17.20
2013,06,23,16,57,17.20
2013,06,23,16,58,17.20
2013,06,23,16,59,17.20
2013,06,23,17,00,17.20
2013,06,23,17,01,17.20
2013,06,23,17,02,17.20
2013,06,23,17,03,17.20
2013,06,23,17,04,17.20
2013,06,23,17,05,17.20
2013,06,23,17,06,17.20
2013,06,23,17,07,17.20
2013,06,23,17,08,17.20
2013,06,23,17,09,17.20
2013,06,23,17,10,17.10
2013,06,23,17,11,17.10
2013,06,23,17,12,17.10
2013,06,23,17,13,17.10
2013,06,23,17,14,17.00
2013,06,23,17,15,17.00
2013,06,23,17,16,17.00
2013,06,23,17,17,17.00
2013,06,23,17,18,17.00
2013,06,23,17,19,17.00
2013,06,23,17,20,16.90
2013,06,23,17,21,16.90
2013,06,23,17,22,16.90
2013,06,23,17,23,16.90
2013,06,23,17,24,16.90
2013,06,23,17,25,16.90
2013,06,23,17,26,16.90
2013,06,23,17,27,16.90
2013,06,23,17,28,16.90
2013,06,23,17,29,16.90
2013,06,23,17,30,16.90
2013,06,23,17,31,16.90
2013,06,23,17,32,16.90
2013,06,23,17,33,16.90